Naples, FL

3:39 PM EDT on May 24, 2017 (GMT -0400)
Naples Municipal

Weather History for KAPF - September, 2012

Change the Weather History Date:

Friday, September 21, 2012

  Actual Average Record
Temperature  
Mean Temperature 82 °F 82 °F  
Max Temperature 90 °F 90 °F 94 °F (1974)
Min Temperature 74 °F 75 °F 66 °F (2000)
Degree Days  
Heating Degree Days 0 0  
Month to date heating degree days 0 0  
Since 1 July heating degree days 0 0  
Cooling Degree Days 17 17  
Month to date cooling degree days 377 372  
Year to date cooling degree days 3272 3029  
Growing Degree Days 30 (Base 50)    
Moisture  
Dew Point 73 °F    
Average Humidity 77    
Maximum Humidity 94    
Minimum Humidity 59    
Precipitation  
Precipitation 0.18 in 0.27 in 6.04 in (1962)
Month to date precipitation 3.21 5.46  
Year to date precipitation 32.26 41.98  
Snow  
Snow 0.00 in - - ()
Month to date snowfall 0.0  
Since 1 July snowfall 0.0  
Since 1 September snowfall 0.0  
Snow Depth 0.00 in    
Sea Level Pressure  
Sea Level Pressure 29.96 in    
Wind  
Wind Speed 5 mph (ENE)    
Max Wind Speed 10 mph    
Max Gust Speed 25 mph    
Visibility 8 miles    
Events Rain , Thunderstorm    
T = Trace of Precipitation, MM = Missing Value Source: NWS Daily Summary

Daily Weather History Graph

Daily Weather History Graph

Search for Another Location

Airport or City:

Trip Planner

Search our weather history database for the weather conditions in past years. The results will help you decide how hot, cold, wet, or windy it might be!

Date:

Astronomy

Sep. 21, 2012 Rise Set
Actual Time 7:15 AM EDT 7:24 PM EDT
Civil Twilight 6:52 AM EDT 7:47 PM EDT
Nautical Twilight 6:25 AM EDT 8:13 PM EDT
Astronomical Twilight 5:58 AM EDT 8:40 PM EDT
Moon 1:00 PM EDT (9/21) 11:58 PM EDT (9/21)
Length of Visible Light 12h 54m
Length of Day
12h 08m
Waxing Crescent, 37% of the Moon is Illuminated
Sep 21
Waxing Crescent
Sep 22
First Quarter
Sep 29
Full
Oct 8
Last Quarter
Oct 15
New

Hourly Weather History & Observations

Time (EDT) Temp. Heat Index Dew Point Humidity Pressure Visibility Wind Dir Wind Speed Gust Speed Precip Events Conditions
12:53 AM 75.9 °F - 73.0 °F 91% 30.00 in 10.0 mi Calm Calm - N/A   Clear
1:53 AM 75.9 °F - 72.0 °F 87% 29.99 in 10.0 mi Calm Calm - N/A   Clear
2:53 AM 75.0 °F - 72.0 °F 90% 29.98 in 10.0 mi NE 4.6 mph - N/A   Clear
3:53 AM 75.0 °F - 72.0 °F 90% 29.98 in 10.0 mi NE 3.5 mph - N/A   Clear
4:53 AM 75.0 °F - 72.0 °F 90% 29.95 in 10.0 mi NE 3.5 mph - N/A   Clear
5:53 AM 75.0 °F - 71.1 °F 87% 29.96 in 10.0 mi North 3.5 mph - N/A   Partly Cloudy
6:53 AM 75.0 °F - 72.0 °F 90% 29.96 in 10.0 mi ENE 6.9 mph - N/A   Clear
7:53 AM 75.0 °F - 72.0 °F 90% 29.97 in 10.0 mi NE 3.5 mph - 0.00 in   Scattered Clouds
8:53 AM 75.9 °F - 73.0 °F 91% 29.97 in 10.0 mi ENE 6.9 mph - N/A   Partly Cloudy
9:53 AM 78.1 °F - 73.9 °F 87% 29.97 in 10.0 mi East 10.4 mph - N/A   Mostly Cloudy
10:53 AM 81.0 °F 87.3 °F 75.9 °F 85% 29.99 in 10.0 mi ENE 6.9 mph - N/A   Scattered Clouds
11:53 AM 82.0 °F 89.4 °F 75.9 °F 82% 29.99 in 10.0 mi East 8.1 mph - N/A   Mostly Cloudy
12:08 PM 82.4 °F 89.5 °F 75.2 °F 79% 29.99 in 10.0 mi ENE 4.6 mph - N/A   Overcast
12:53 PM 84.0 °F 91.9 °F 75.0 °F 74% 29.98 in 10.0 mi East 5.8 mph - N/A   Overcast
1:53 PM 86.0 °F 93.0 °F 73.0 °F 65% 29.95 in 10.0 mi NE 6.9 mph - N/A   Scattered Clouds
2:53 PM 87.1 °F 93.6 °F 72.0 °F 61% 29.92 in 10.0 mi East 6.9 mph - N/A   Scattered Clouds
3:42 PM 80.6 °F 85.4 °F 73.4 °F 79% 29.91 in 1.5 mi ESE 16.1 mph 25.3 mph 0.10 in Rain Rain
3:50 PM 80.6 °F 84.6 °F 71.6 °F 74% 29.91 in 0.8 mi Variable 4.6 mph - 0.18 in Rain Light Rain
3:53 PM 81.0 °F 85.8 °F 73.0 °F 77% 29.90 in 10.0 mi South 9.2 mph - 0.18 in Rain Light Rain
4:53 PM 77.0 °F - 73.0 °F 88% 29.90 in 7.0 mi WNW 5.8 mph - 0.00 in   Clear
5:53 PM 78.1 °F - 72.0 °F 81% 29.92 in 10.0 mi NW 3.5 mph - 0.00 in   Mostly Cloudy
6:36 PM 73.4 °F - 71.6 °F 94% 29.96 in 3.0 mi East 10.4 mph - 0.09 in Rain Rain
6:40 PM 73.4 °F - 71.6 °F 94% 29.96 in 1.8 mi East 8.1 mph - 0.15 in Rain Heavy Rain
6:53 PM 73.9 °F - 72.0 °F 93% 29.96 in 1.0 mi East 8.1 mph - 0.35 in Rain Heavy Rain
7:02 PM 73.4 °F - 73.4 °F 100% 29.97 in 2.0 mi ENE 10.4 mph - 0.03 in Rain , Thunderstorm Rain
7:11 PM 73.4 °F - 71.6 °F 94% 29.97 in 5.0 mi NE 8.1 mph - 0.04 in Rain , Thunderstorm Light Rain
7:23 PM 73.4 °F - 71.6 °F 94% 29.97 in 6.0 mi NE 3.5 mph - 0.06 in Rain Rain
7:53 PM 73.9 °F - 72.0 °F 93% 29.98 in 7.0 mi NNE 4.6 mph - 0.08 in Rain Light Rain
8:53 PM 73.9 °F - 72.0 °F 93% 29.98 in 10.0 mi NE 3.5 mph - 0.01 in Rain Light Rain
9:53 PM 73.9 °F - 72.0 °F 93% 29.99 in 9.0 mi East 3.5 mph - 0.00 in Rain Light Rain
10:53 PM 73.0 °F - 72.0 °F 96% 29.99 in 10.0 mi NE 4.6 mph - 0.00 in   Mostly Cloudy
11:53 PM 73.0 °F - 72.0 °F 96% 29.98 in 10.0 mi NE 5.8 mph - N/A   Partly Cloudy